EST,Max TemperatureF,Mean TemperatureF,Min TemperatureF,Max Dew PointF,MeanDew PointF,Min DewpointF,Max Humidity, Mean Humidity, Min Humidity, Max Sea Level PressureIn, Mean Sea Level PressureIn, Min Sea Level PressureIn, Max VisibilityMiles, Mean VisibilityMiles, Min VisibilityMiles, Max Wind SpeedMPH, Mean Wind SpeedMPH, Max Gust SpeedMPH,PrecipitationIn, CloudCover, Events, WindDirDegrees
2012-12-1,71,58,44,52,48,45,100,78,43,30.39,30.34,30.31,10,10,5,12,2,,0.00,5,,88
2012-12-2,75,62,48,59,53,48,100,80,47,30.38,30.33,30.28,10,9,0,9,3,,0.00,4,Fog,142
2012-12-3,73,60,46,63,55,46,100,88,44,30.35,30.30,30.26,10,6,0,6,1,,0.00,6,Fog,188
2012-12-4,73,60,48,61,57,48,100,90,57,30.37,30.29,30.26,10,7,0,8,1,,0.00,6,Fog,207
2012-12-5,73,58,44,54,50,45,100,79,38,30.26,30.17,30.11,10,7,0,9,2,,0.00,2,Fog,288
2012-12-6,64,58,51,57,49,43,100,70,56,30.20,30.15,30.13,10,10,10,10,6,16,0.00,7,,41
2012-12-7,60,53,46,52,47,43,100,81,67,30.12,30.06,30.00,10,10,3,7,4,,0.00,7,,7
2012-12-8,66,55,44,55,50,45,100,90,64,30.11,30.06,30.03,10,7,0,5,1,,0.00,3,Fog,195
2012-12-9,77,64,50,64,59,50,100,90,57,30.15,30.08,30.00,10,8,0,7,1,,0.00,6,Fog,176
2012-12-10,73,66,60,64,60,55,100,84,53,29.99,29.88,29.80,10,7,0,14,4,20,0.00,4,Fog,191
2012-12-11,66,60,55,63,59,54,100,93,77,30.09,29.95,29.80,10,10,5,7,4,,0.00,6,Rain,263
2012-12-12,55,50,44,54,48,45,100,93,82,30.24,30.15,30.08,10,9,5,12,5,17,0.00,7,Rain,17
2012-12-13,46,40,35,45,41,36,100,95,81,30.34,30.29,30.19,10,9,2,13,7,20,0.00,6,Rain,4
2012-12-14,60,46,32,41,37,32,100,83,42,30.39,30.30,30.23,10,9,2,7,3,,0.00,0,,357
2012-12-15,59,50,41,54,46,37,100,78,66,30.26,30.18,30.11,10,10,10,7,2,,0.00,7,,23
2012-12-16,73,62,51,63,58,52,100,88,57,30.12,30.02,29.91,10,8,0,14,3,,0.00,6,Fog,176
2012-12-17,64,62,59,63,61,59,100,98,88,29.90,29.84,29.75,10,10,5,20,5,23,0.00,8,Rain-Thunderstorm,222
2012-12-18,66,52,37,59,46,30,100,73,28,30.02,29.86,29.77,10,10,5,23,6,31,0.00,3,,262
2012-12-19,69,51,33,41,36,32,100,71,25,30.13,30.08,30.02,10,10,10,12,1,,0.00,0,,262
2012-12-20,73,53,33,63,49,34,100,80,47,30.12,29.92,29.68,10,10,1,25,7,34,0.00,4,Rain,186
2012-12-21,53,47,41,41,25,18,62,47,32,30.02,29.90,29.78,10,10,10,24,16,37,0.00,0,,275
2012-12-22,55,44,32,30,20,14,87,47,20,30.20,30.13,30.02,10,10,10,16,10,23,0.00,0,,276
2012-12-23,59,42,26,34,28,23,93,62,29,30.23,30.16,30.11,10,10,10,9,1,,0.00,0,,233
2012-12-24,60,50,41,52,39,28,100,69,29,30.14,30.03,29.96,10,10,5,10,2,,0.00,5,Rain,177
2012-12-25,53,52,50,54,53,50,100,100,94,30.09,30.02,29.96,10,5,2,10,2,,0.00,8,Rain,52
2012-12-26,66,54,42,63,40,32,100,62,42,29.86,29.70,29.56,10,10,3,26,18,36,0.00,6,Rain-Thunderstorm,257
2012-12-27,53,43,33,36,33,30,100,71,44,30.08,29.99,29.85,10,10,10,17,9,26,0.00,0,,282
2012-12-28,53,42,30,45,37,30,100,82,51,30.16,30.07,29.95,10,10,10,7,1,,0.00,1,,89
2012-12-29,55,48,41,50,42,30,100,81,58,30.10,29.87,29.71,10,9,3,20,8,31,0.00,7,Rain,292
2012-12-30,51,40,28,30,27,19,93,68,28,30.45,30.33,30.10,10,10,10,15,7,18,0.00,0,,312
2012-12-31,60,42,24,45,33,23,100,74,37,30.45,30.34,30.20,10,10,10,9,1,,0.00,2,,207